| time (UTC) | temp C | wind direction | speed KPH | gust KPH | rain 1hr cm | rain 24hr cm | rain mn cm | humidity % | barometer mb |
| 20260502220417 | 26 | 250 | 1.6 | 1.6 | 0.00 | 0.00 | 0.00 | 32 | 1020.5 |
| 20260502215914 | 26 | 304 | 4.8 | 4.8 | 0.00 | 0.00 | 0.00 | 32 | 1020.5 |
| 20260502215412 | 26 | 287 | 4.8 | 4.8 | 0.00 | 0.00 | 0.00 | 30 | 1020.5 |
| 20260502214908 | 26 | 133 | 1.6 | 1.6 | 0.00 | 0.00 | 0.00 | 32 | 1020.4 |
| 20260502214405 | 26 | 234 | 1.6 | 1.6 | 0.00 | 0.00 | 0.00 | 31 | 1020.6 |
| 20260502213903 | 26 | 254 | 4.8 | 8.0 | 0.00 | 0.00 | 0.00 | 32 | 1020.9 |
| 20260502213359 | 26 | 302 | 4.8 | 8.0 | 0.00 | 0.00 | 0.00 | 32 | 1020.7 |
| 20260502212859 | 25 | 259 | 3.2 | 3.2 | 0.00 | 0.00 | 0.00 | 31 | 1020.8 |
| 20260502212356 | 25 | 265 | 3.2 | 3.2 | 0.00 | 0.00 | 0.00 | 32 | 1020.9 |
| 20260502211853 | 26 | 266 | 4.8 | 8.0 | 0.00 | 0.00 | 0.00 | 31 | 1021.0 |
| 20260502211349 | 26 | 260 | 1.6 | 4.8 | 0.00 | 0.00 | 0.00 | 34 | 1020.8 |
| 20260502210847 | 25 | 271 | 3.2 | 3.2 | 0.00 | 0.00 | 0.00 | 32 | 1021.2 |
| 20260502210343 | 25 | 318 | 6.4 | 8.0 | 0.00 | 0.00 | 0.00 | 33 | 1021.0 |
| 20260502205841 | 25 | 258 | 0.0 | 1.6 | 0.00 | 0.00 | 0.00 | 34 | 1021.1 |
| 20260502205337 | 25 | 224 | 1.6 | 3.2 | 0.00 | 0.00 | 0.00 | 32 | 1021.2 |
| 20260502204834 | 25 | 280 | 6.4 | 9.7 | 0.00 | 0.00 | 0.00 | 33 | 1021.5 |
| 20260502204331 | 25 | 263 | 3.2 | 3.2 | 0.00 | 0.00 | 0.00 | 32 | 1021.4 |
| 20260502203828 | 25 | 242 | 0.0 | 0.0 | 0.00 | 0.00 | 0.00 | 35 | 1021.4 |
| 20260502203326 | 25 | 332 | 6.4 | 12.9 | 0.00 | 0.00 | 0.00 | 33 | 1021.3 |
| 20260502202826 | 26 | 302 | 1.6 | 3.2 | 0.00 | 0.00 | 0.00 | 32 | 1021.6 |
| 20260502202324 | 26 | 314 | 3.2 | 3.2 | 0.00 | 0.00 | 0.00 | 34 | 1021.4 |
| 20260502201822 | 25 | 93 | 3.2 | 4.8 | 0.00 | 0.00 | 0.00 | 33 | 1021.6 |
| 20260502201317 | 25 | 4 | 4.8 | 4.8 | 0.00 | 0.00 | 0.00 | 33 | 1021.7 |
| 20260502200814 | 25 | 206 | 0.0 | 1.6 | 0.00 | 0.00 | 0.00 | 34 | 1021.6 |
| 20260502200310 | 25 | 265 | 4.8 | 8.0 | 0.00 | 0.00 | 0.00 | 32 | 1021.8 |
| 20260502195808 | 25 | 356 | 3.2 | 4.8 | 0.00 | 0.00 | 0.00 | 32 | 1022.0 |
| 20260502195305 | 25 | 253 | 3.2 | 4.8 | 0.00 | 0.00 | 0.00 | 34 | 1022.0 |
| 20260502194801 | 25 | 1 | 3.2 | 9.7 | 0.00 | 0.00 | 0.00 | 35 | 1022.0 |
| 20260502194258 | 24 | 329 | 3.2 | 3.2 | 0.00 | 0.00 | 0.00 | 35 | 1022.0 |
| 20260502193754 | 25 | 345 | 4.8 | 4.8 | 0.00 | 0.00 | 0.00 | 32 | 1022.0 |
| 20260502193252 | 25 | 272 | 4.8 | 4.8 | 0.00 | 0.00 | 0.00 | 33 | 1022.0 |
| 20260502192751 | 25 | 311 | 0.0 | 1.6 | 0.00 | 0.00 | 0.00 | 37 | 1022.2 |
| 20260502192249 | 25 | 168 | 0.0 | 1.6 | 0.00 | 0.00 | 0.00 | 37 | 1022.4 |
| 20260502191746 | 25 | 188 | 1.6 | 3.2 | 0.00 | 0.00 | 0.00 | 34 | 1022.5 |
| 20260502191244 | 25 | 314 | 1.6 | 3.2 | 0.00 | 0.00 | 0.00 | 35 | 1022.1 |
| 20260502190741 | 25 | 237 | 3.2 | 4.8 | 0.00 | 0.00 | 0.00 | 35 | 1022.4 |
| 20260502190239 | 24 | 271 | 4.8 | 4.8 | 0.00 | 0.00 | 0.00 | 34 | 1022.4 |
| 20260502185738 | 24 | 316 | 4.8 | 8.0 | 0.00 | 0.00 | 0.00 | 34 | 1022.4 |
| 20260502185235 | 25 | 286 | 4.8 | 8.0 | 0.00 | 0.00 | 0.00 | 35 | 1022.5 |
| 20260502184732 | 24 | 162 | 0.0 | 1.6 | 0.00 | 0.00 | 0.00 | 36 | 1022.6 |
| 20260502184227 | 24 | 96 | 1.6 | 3.2 | 0.00 | 0.00 | 0.00 | 35 | 1022.6 |
| 20260502183724 | 24 | 2 | 6.4 | 9.7 | 0.00 | 0.00 | 0.00 | 34 | 1022.8 |
| 20260502183220 | 24 | 256 | 0.0 | 0.0 | 0.00 | 0.00 | 0.00 | 35 | 1022.6 |
| 20260502182716 | 23 | 353 | 3.2 | 3.2 | 0.00 | 0.00 | 0.00 | 34 | 1022.9 |
| 20260502182211 | 24 | 271 | 1.6 | 3.2 | 0.00 | 0.00 | 0.00 | 32 | 1022.7 |
| 20260502181709 | 23 | 251 | 1.6 | 1.6 | 0.00 | 0.00 | 0.00 | 36 | 1022.8 |
| 20260502181208 | 23 | 190 | 1.6 | 1.6 | 0.00 | 0.00 | 0.00 | 38 | 1023.0 |
| 20260502180704 | 22 | 269 | 3.2 | 3.2 | 0.00 | 0.00 | 0.00 | 36 | 1023.0 |
| 20260502180202 | 23 | 224 | 8.0 | 9.7 | 0.00 | 0.00 | 0.00 | 35 | 1023.1 |
| 20260502170126 | 23 | 97 | 0.0 | 1.6 | 0.00 | 0.00 | 0.00 | 36 | 1023.9 |
| 20260502164113 | 22 | 46 | 0.0 | 1.6 | 0.00 | 0.00 | 0.00 | 39 | 1024.1 |
| 20260502163609 | 22 | 241 | 1.6 | 1.6 | 0.00 | 0.00 | 0.00 | 36 | 1023.7 |
| 20260502163105 | 22 | 65 | 1.6 | 3.2 | 0.00 | 0.00 | 0.00 | 37 | 1023.7 |
| 20260502162602 | 21 | 169 | 0.0 | 0.0 | 0.00 | 0.00 | 0.00 | 40 | 1023.8 |
| 20260502162059 | 21 | 316 | 3.2 | 3.2 | 0.00 | 0.00 | 0.00 | 41 | 1024.0 |
| 20260502161556 | 21 | 329 | 3.2 | 3.2 | 0.00 | 0.00 | 0.00 | 41 | 1023.8 |
| 20260502161054 | 21 | 315 | 3.2 | 4.8 | 0.00 | 0.00 | 0.00 | 41 | 1023.7 |
| 20260502160552 | 21 | 255 | 1.6 | 1.6 | 0.00 | 0.00 | 0.00 | 42 | 1023.6 |
| 20260502152004 | 20 | 45 | 0.0 | 0.0 | 0.00 | 0.00 | 0.00 | 47 | 1023.5 |
| 20260502151501 | 19 | 346 | 1.6 | 1.6 | 0.00 | 0.00 | 0.00 | 47 | 1023.6 |
| 20260502150958 | 19 | 334 | 1.6 | 3.2 | 0.00 | 0.00 | 0.00 | 46 | 1023.7 |
| 20260502150455 | 19 | 295 | 3.2 | 3.2 | 0.00 | 0.00 | 0.00 | 48 | 1023.4 |
| 20260502130341 | 12 | 258 | 3.2 | 3.2 | 0.00 | 0.00 | 0.00 | 90 | 1022.7 |
| 20260502123323 | 11 | 250 | 0.0 | 0.0 | 0.00 | 0.00 | 0.00 | 96 | 1022.2 |
| 20260502122821 | 10 | 250 | 0.0 | 0.0 | 0.00 | 0.00 | 0.00 | 96 | 1022.3 |
| 20260502122316 | 10 | 249 | 0.0 | 0.0 | 0.00 | 0.00 | 0.00 | 96 | 1022.2 |
| 20260502121815 | 10 | 249 | 0.0 | 0.0 | 0.00 | 0.00 | 0.00 | 96 | 1022.0 |
| 20260502121312 | 10 | 249 | 0.0 | 0.0 | 0.00 | 0.00 | 0.00 | 96 | 1021.7 |
| 20260502120809 | 10 | 249 | 0.0 | 0.0 | 0.00 | 0.00 | 0.00 | 95 | 1021.6 |
| 20260502120305 | 10 | 249 | 0.0 | 0.0 | 0.00 | 0.00 | 0.00 | 95 | 1021.6 |
| 20260502115803 | 10 | 249 | 0.0 | 0.0 | 0.00 | 0.00 | 0.00 | 95 | 1021.7 |
| 20260502115300 | 10 | 249 | 0.0 | 0.0 | 0.00 | 0.00 | 0.00 | 95 | 1021.7 |
| 20260502114756 | 10 | 249 | 0.0 | 0.0 | 0.00 | 0.00 | 0.00 | 94 | 1021.5 |
| 20260502114253 | 10 | 249 | 0.0 | 0.0 | 0.00 | 0.00 | 0.00 | 94 | 1021.3 |
| 20260502113750 | 10 | 249 | 0.0 | 0.0 | 0.00 | 0.00 | 0.00 | 93 | 1021.3 |
| 20260502113248 | 10 | 249 | 0.0 | 0.0 | 0.00 | 0.00 | 0.00 | 93 | 1021.3 |
| 20260502112746 | 10 | 249 | 0.0 | 0.0 | 0.00 | 0.00 | 0.00 | 93 | 1021.3 |
| 20260502112243 | 10 | 249 | 0.0 | 0.0 | 0.00 | 0.00 | 0.00 | 93 | 1021.2 |
| 20260502111740 | 10 | 249 | 0.0 | 0.0 | 0.00 | 0.00 | 0.00 | 93 | 1021.2 |
| 20260502111237 | 10 | 249 | 0.0 | 0.0 | 0.00 | 0.00 | 0.00 | 93 | 1021.1 |
| 20260502110735 | 10 | 249 | 1.6 | 1.6 | 0.00 | 0.00 | 0.00 | 94 | 1021.1 |
| 20260502110232 | 10 | 249 | 0.0 | 1.6 | 0.00 | 0.00 | 0.00 | 94 | 1021.1 |
| 20260502105730 | 10 | 249 | 0.0 | 1.6 | 0.00 | 0.00 | 0.00 | 94 | 1021.2 |
| 20260502105226 | 10 | 249 | 0.0 | 0.0 | 0.00 | 0.00 | 0.00 | 94 | 1021.2 |
| 20260502104724 | 10 | 249 | 0.0 | 0.0 | 0.00 | 0.00 | 0.00 | 93 | 1021.2 |
| 20260502104222 | 10 | 249 | 0.0 | 0.0 | 0.00 | 0.00 | 0.00 | 93 | 1021.0 |
| 20260502103719 | 10 | 249 | 0.0 | 0.0 | 0.00 | 0.00 | 0.00 | 93 | 1021.0 |
| 20260502103217 | 10 | 249 | 0.0 | 0.0 | 0.00 | 0.00 | 0.00 | 92 | 1020.8 |
| 20260502102713 | 10 | 249 | 0.0 | 0.0 | 0.00 | 0.00 | 0.00 | 92 | 1020.6 |
| 20260502102210 | 10 | 249 | 0.0 | 0.0 | 0.00 | 0.00 | 0.00 | 92 | 1020.7 |
| 20260502101708 | 10 | 249 | 0.0 | 0.0 | 0.00 | 0.00 | 0.00 | 91 | 1020.6 |
| 20260502101206 | 10 | 249 | 0.0 | 0.0 | 0.00 | 0.00 | 0.00 | 91 | 1020.6 |
| 20260502100704 | 10 | 249 | 0.0 | 0.0 | 0.00 | 0.00 | 0.00 | 90 | 1020.7 |
| 20260502100202 | 11 | 249 | 0.0 | 0.0 | 0.00 | 0.00 | 0.00 | 90 | 1020.8 |
| 20260502091136 | 11 | 247 | 0.0 | 0.0 | 0.00 | 0.00 | 0.00 | 90 | 1020.7 |
| 20260502090633 | 11 | 247 | 0.0 | 1.6 | 0.00 | 0.00 | 0.00 | 90 | 1020.7 |
| 20260502090130 | 11 | 249 | 0.0 | 1.6 | 0.00 | 0.00 | 0.00 | 90 | 1020.5 |
| 20260502071528 | 10 | 172 | 0.0 | 0.0 | 0.00 | 0.00 | 0.00 | 95 | 1020.6 |
| 20260502071026 | 10 | 172 | 0.0 | 0.0 | 0.00 | 0.00 | 0.00 | 95 | 1020.7 |
| 20260502070523 | 10 | 172 | 0.0 | 0.0 | 0.00 | 0.00 | 0.00 | 95 | 1020.8 |
| 20260502070022 | 10 | 172 | 0.0 | 0.0 | 0.00 | 0.00 | 0.00 | 94 | 1020.6 |
| 20260502065520 | 10 | 172 | 0.0 | 0.0 | 0.00 | 0.00 | 0.00 | 94 | 1020.6 |
| 20260502065017 | 11 | 172 | 0.0 | 0.0 | 0.00 | 0.00 | 0.00 | 94 | 1020.9 |
| 20260502064515 | 11 | 172 | 0.0 | 0.0 | 0.00 | 0.00 | 0.00 | 94 | 1020.9 |
| 20260502064012 | 11 | 172 | 0.0 | 0.0 | 0.00 | 0.00 | 0.00 | 94 | 1020.8 |
| 20260502063510 | 11 | 172 | 0.0 | 0.0 | 0.00 | 0.00 | 0.00 | 94 | 1020.9 |
| 20260502063008 | 10 | 172 | 0.0 | 0.0 | 0.00 | 0.00 | 0.00 | 93 | 1021.0 |
| 20260502062504 | 11 | 172 | 0.0 | 0.0 | 0.00 | 0.00 | 0.00 | 93 | 1020.7 |
| 20260502062003 | 11 | 172 | 0.0 | 0.0 | 0.00 | 0.00 | 0.00 | 93 | 1020.6 |
| 20260502061500 | 11 | 172 | 0.0 | 0.0 | 0.00 | 0.00 | 0.00 | 93 | 1020.8 |
| 20260502060956 | 11 | 172 | 0.0 | 0.0 | 0.00 | 0.00 | 0.00 | 93 | 1020.6 |
| 20260502060451 | 11 | 172 | 0.0 | 0.0 | 0.00 | 0.00 | 0.00 | 93 | 1020.7 |
| 20260502055948 | 11 | 172 | 0.0 | 0.0 | 0.00 | 0.00 | 0.00 | 92 | 1020.7 |
| 20260502055446 | 11 | 172 | 0.0 | 0.0 | 0.00 | 0.00 | 0.00 | 92 | 1020.8 |
| 20260502054940 | 11 | 172 | 0.0 | 0.0 | 0.00 | 0.00 | 0.00 | 93 | 1020.8 |
| 20260502054438 | 11 | 172 | 0.0 | 0.0 | 0.00 | 0.00 | 0.00 | 92 | 1020.7 |
| 20260502053935 | 11 | 172 | 0.0 | 0.0 | 0.00 | 0.00 | 0.00 | 92 | 1020.7 |
| 20260502053432 | 11 | 172 | 0.0 | 0.0 | 0.00 | 0.00 | 0.00 | 92 | 1020.7 |
| 20260502052930 | 11 | 172 | 0.0 | 0.0 | 0.00 | 0.00 | 0.00 | 92 | 1020.7 |
| 20260502052428 | 11 | 172 | 0.0 | 0.0 | 0.00 | 0.00 | 0.00 | 92 | 1020.8 |
| 20260502051926 | 11 | 172 | 0.0 | 0.0 | 0.00 | 0.00 | 0.00 | 91 | 1020.8 |
| 20260502051424 | 11 | 172 | 0.0 | 0.0 | 0.00 | 0.00 | 0.00 | 91 | 1020.6 |
| 20260502050920 | 12 | 172 | 0.0 | 0.0 | 0.00 | 0.00 | 0.00 | 91 | 1020.6 |
| 20260502050417 | 12 | 172 | 0.0 | 0.0 | 0.00 | 0.00 | 0.00 | 90 | 1020.7 |
| 20260502045914 | 12 | 172 | 0.0 | 0.0 | 0.00 | 0.00 | 0.00 | 90 | 1020.7 |
| 20260502045411 | 12 | 172 | 0.0 | 0.0 | 0.00 | 0.00 | 0.00 | 90 | 1020.7 |
| 20260502044908 | 12 | 172 | 0.0 | 0.0 | 0.00 | 0.00 | 0.00 | 89 | 1020.5 |
| 20260502044403 | 12 | 172 | 0.0 | 0.0 | 0.00 | 0.00 | 0.00 | 89 | 1020.7 |
| 20260502043901 | 12 | 172 | 0.0 | 0.0 | 0.00 | 0.00 | 0.00 | 88 | 1020.6 |
| 20260502043358 | 12 | 172 | 0.0 | 0.0 | 0.00 | 0.00 | 0.00 | 88 | 1020.7 |
| 20260502042857 | 12 | 172 | 0.0 | 0.0 | 0.00 | 0.00 | 0.00 | 88 | 1020.4 |
| 20260502042355 | 12 | 172 | 0.0 | 0.0 | 0.00 | 0.00 | 0.00 | 87 | 1020.5 |
| 20260502041852 | 12 | 172 | 0.0 | 0.0 | 0.00 | 0.00 | 0.00 | 87 | 1020.4 |
| 20260502041349 | 12 | 172 | 0.0 | 0.0 | 0.00 | 0.00 | 0.00 | 86 | 1020.4 |
| 20260502040847 | 12 | 172 | 0.0 | 0.0 | 0.00 | 0.00 | 0.00 | 85 | 1020.5 |
| 20260502040344 | 12 | 172 | 0.0 | 0.0 | 0.00 | 0.00 | 0.00 | 85 | 1020.4 |
| 20260502035840 | 13 | 172 | 0.0 | 0.0 | 0.00 | 0.00 | 0.00 | 85 | 1020.5 |
| 20260502035336 | 13 | 172 | 0.0 | 0.0 | 0.00 | 0.00 | 0.00 | 84 | 1020.7 |
| 20260502034834 | 13 | 172 | 0.0 | 0.0 | 0.00 | 0.00 | 0.00 | 83 | 1020.6 |
| 20260502034332 | 13 | 172 | 0.0 | 0.0 | 0.00 | 0.00 | 0.00 | 82 | 1020.5 |
| 20260502033831 | 13 | 172 | 0.0 | 0.0 | 0.00 | 0.00 | 0.00 | 81 | 1020.7 |
| 20260502033328 | 13 | 172 | 0.0 | 0.0 | 0.00 | 0.00 | 0.00 | 81 | 1020.6 |
| 20260502032824 | 14 | 172 | 0.0 | 0.0 | 0.00 | 0.00 | 0.00 | 80 | 1020.4 |
| 20260502032320 | 14 | 172 | 0.0 | 0.0 | 0.00 | 0.00 | 0.00 | 79 | 1020.4 |
| 20260502031818 | 15 | 172 | 0.0 | 0.0 | 0.00 | 0.00 | 0.00 | 77 | 1020.4 |
| 20260502031316 | 15 | 172 | 0.0 | 0.0 | 0.00 | 0.00 | 0.00 | 75 | 1020.3 |
| 20260502030814 | 15 | 172 | 0.0 | 0.0 | 0.00 | 0.00 | 0.00 | 75 | 1019.9 |
| 20260502030312 | 15 | 172 | 0.0 | 1.6 | 0.00 | 0.00 | 0.00 | 77 | 1019.9 |
| 20260502025809 | 15 | 172 | 0.0 | 0.0 | 0.00 | 0.00 | 0.00 | 78 | 1020.2 |
| 20260502025307 | 15 | 172 | 0.0 | 0.0 | 0.00 | 0.00 | 0.00 | 78 | 1020.3 |
| 20260502024805 | 15 | 172 | 0.0 | 0.0 | 0.00 | 0.00 | 0.00 | 78 | 1020.1 |
| 20260502024302 | 15 | 172 | 0.0 | 0.0 | 0.00 | 0.00 | 0.00 | 77 | 1020.1 |
| 20260502023800 | 15 | 172 | 0.0 | 0.0 | 0.00 | 0.00 | 0.00 | 77 | 1020.1 |
| 20260502023258 | 15 | 172 | 0.0 | 0.0 | 0.00 | 0.00 | 0.00 | 77 | 1020.2 |
| 20260502022755 | 15 | 172 | 0.0 | 0.0 | 0.00 | 0.00 | 0.00 | 77 | 1020.1 |
| 20260502022251 | 15 | 172 | 1.6 | 1.6 | 0.00 | 0.00 | 0.00 | 76 | 1019.7 |
| 20260502021748 | 15 | 172 | 0.0 | 0.0 | 0.00 | 0.00 | 0.00 | 76 | 1019.9 |
| 20260502021245 | 15 | 172 | 0.0 | 0.0 | 0.00 | 0.00 | 0.00 | 76 | 1019.8 |
| 20260502020743 | 15 | 172 | 0.0 | 0.0 | 0.00 | 0.00 | 0.00 | 76 | 1019.6 |
| 20260502020240 | 15 | 172 | 0.0 | 0.0 | 0.00 | 0.00 | 0.00 | 75 | 1019.5 |
| 20260502015738 | 15 | 172 | 0.0 | 0.0 | 0.00 | 0.00 | 0.00 | 75 | 1019.2 |
| 20260502015233 | 15 | 172 | 0.0 | 0.0 | 0.00 | 0.00 | 0.00 | 75 | 1019.0 |
| 20260502014731 | 16 | 172 | 0.0 | 0.0 | 0.00 | 0.00 | 0.00 | 74 | 1019.0 |
| 20260502014228 | 16 | 172 | 1.6 | 1.6 | 0.00 | 0.00 | 0.00 | 74 | 1019.0 |
| 20260502013724 | 16 | 170 | 1.6 | 1.6 | 0.00 | 0.00 | 0.00 | 74 | 1018.6 |
| 20260502013220 | 16 | 170 | 0.0 | 0.0 | 0.00 | 0.00 | 0.00 | 73 | 1018.7 |
| 20260502012717 | 16 | 170 | 0.0 | 1.6 | 0.00 | 0.00 | 0.00 | 73 | 1018.7 |
| 20260502012215 | 16 | 170 | 1.6 | 3.2 | 0.00 | 0.00 | 0.00 | 72 | 1018.4 |
| 20260502011712 | 16 | 173 | 0.0 | 1.6 | 0.00 | 0.00 | 0.00 | 73 | 1018.4 |
| 20260502011207 | 16 | 173 | 0.0 | 0.0 | 0.00 | 0.00 | 0.00 | 72 | 1018.3 |
| 20260502010706 | 16 | 174 | 0.0 | 0.0 | 0.00 | 0.00 | 0.00 | 72 | 1018.2 |
| 20260502010201 | 16 | 174 | 0.0 | 0.0 | 0.00 | 0.00 | 0.00 | 71 | 1018.0 |
| 20260502005658 | 16 | 174 | 1.6 | 1.6 | 0.00 | 0.00 | 0.00 | 71 | 1018.3 |
| 20260502005156 | 16 | 174 | 0.0 | 0.0 | 0.00 | 0.00 | 0.00 | 70 | 1018.2 |
| 20260502004652 | 16 | 175 | 0.0 | 0.0 | 0.00 | 0.00 | 0.00 | 70 | 1018.2 |
| 20260502004149 | 16 | 175 | 0.0 | 0.0 | 0.00 | 0.00 | 0.00 | 70 | 1018.1 |
| 20260502003647 | 16 | 175 | 0.0 | 0.0 | 0.00 | 0.00 | 0.00 | 70 | 1018.0 |
| 20260502003144 | 16 | 177 | 0.0 | 0.0 | 0.00 | 0.00 | 0.00 | 69 | 1017.9 |
| 20260502002640 | 16 | 168 | 0.0 | 0.0 | 0.00 | 0.00 | 0.00 | 68 | 1018.3 |
| 20260502002137 | 16 | 168 | 0.0 | 0.0 | 0.00 | 0.00 | 0.00 | 68 | 1018.1 |
| 20260502001635 | 16 | 165 | 0.0 | 0.0 | 0.00 | 0.00 | 0.00 | 68 | 1018.1 |
| 20260502001132 | 16 | 159 | 0.0 | 0.0 | 0.00 | 0.00 | 0.00 | 68 | 1017.9 |
| 20260502000630 | 17 | 149 | 0.0 | 0.0 | 0.00 | 0.00 | 0.00 | 68 | 1017.7 |
| 20260502000127 | 17 | 142 | 0.0 | 0.0 | 0.00 | 0.00 | 0.00 | 67 | 1017.5 |
| 20260501235623 | 17 | 144 | 0.0 | 0.0 | 0.00 | 0.00 | 0.00 | 67 | 1017.5 |
| 20260501235119 | 17 | 137 | 0.0 | 1.6 | 0.00 | 0.00 | 0.00 | 67 | 1017.4 |
| 20260501234615 | 17 | 109 | 0.0 | 0.0 | 0.00 | 0.00 | 0.00 | 67 | 1017.2 |
| 20260501234112 | 17 | 69 | 0.0 | 1.6 | 0.00 | 0.00 | 0.00 | 66 | 1017.2 |
| 20260501233611 | 17 | 151 | 0.0 | 1.6 | 0.00 | 0.00 | 0.00 | 66 | 1017.1 |
| 20260501233108 | 17 | 155 | 1.6 | 1.6 | 0.00 | 0.00 | 0.00 | 67 | 1017.1 |
| 20260501232603 | 17 | 158 | 0.0 | 0.0 | 0.00 | 0.00 | 0.00 | 66 | 1017.1 |
| 20260501232101 | 17 | 156 | 0.0 | 1.6 | 0.00 | 0.00 | 0.00 | 66 | 1016.9 |
| 20260501231558 | 17 | 144 | 0.0 | 1.6 | 0.00 | 0.00 | 0.00 | 65 | 1016.9 |
| 20260501231056 | 17 | 151 | 0.0 | 0.0 | 0.00 | 0.00 | 0.00 | 65 | 1017.0 |
| 20260501230555 | 17 | 142 | 0.0 | 0.0 | 0.00 | 0.00 | 0.00 | 65 | 1016.8 |
| 20260501230053 | 17 | 90 | 1.6 | 3.2 | 0.00 | 0.00 | 0.00 | 64 | 1016.7 |
| 20260501225550 | 17 | 141 | 0.0 | 1.6 | 0.00 | 0.00 | 0.00 | 64 | 1017.0 |
| 20260501225046 | 17 | 127 | 0.0 | 0.0 | 0.00 | 0.00 | 0.00 | 64 | 1017.0 |
| 20260501224544 | 17 | 85 | 1.6 | 1.6 | 0.00 | 0.00 | 0.00 | 63 | 1016.9 |
| 20260501224040 | 17 | 144 | 0.0 | 1.6 | 0.00 | 0.00 | 0.00 | 63 | 1016.8 |
| 20260501223537 | 17 | 135 | 0.0 | 0.0 | 0.00 | 0.00 | 0.00 | 63 | 1016.7 |
| 20260501223033 | 17 | 104 | 1.6 | 1.6 | 0.00 | 0.00 | 0.00 | 63 | 1016.9 |
| 20260501222530 | 17 | 71 | 0.0 | 1.6 | 0.00 | 0.00 | 0.00 | 62 | 1016.9 |
| 20260501222027 | 17 | 88 | 1.6 | 1.6 | 0.00 | 0.00 | 0.00 | 63 | 1016.9 |
| 20260501221523 | 17 | 103 | 1.6 | 3.2 | 0.00 | 0.00 | 0.00 | 62 | 1016.8 |
| 20260501221021 | 17 | 75 | 1.6 | 1.6 | 0.00 | 0.00 | 0.00 | 62 | 1016.7 |